Year,Month,Day,Hour,Minute,Value (Times are PST for windspeed in km/hr)
2008,02,05,00,00,10.70
2008,02,05,00,01,6.30
2008,02,05,00,02,10.00
2008,02,05,00,03,8.40
2008,02,05,00,04,11.60
2008,02,05,00,05,9.30
2008,02,05,00,06,7.10
2008,02,05,00,07,5.30
2008,02,05,00,08,9.70
2008,02,05,00,09,11.50
2008,02,05,00,10,6.20
2008,02,05,00,11,10.20
2008,02,05,00,12,12.40
2008,02,05,00,13,8.00
2008,02,05,00,14,11.60
2008,02,05,00,15,9.50
2008,02,05,00,16,6.90
2008,02,05,00,17,9.70
2008,02,05,00,18,6.40
2008,02,05,00,19,6.90
2008,02,05,00,20,5.20
2008,02,05,00,21,4.10
2008,02,05,00,22,5.70
2008,02,05,00,23,6.90
2008,02,05,00,24,5.90
2008,02,05,00,25,4.40
2008,02,05,00,26,8.80
2008,02,05,00,27,8.90
2008,02,05,00,28,8.30
2008,02,05,00,29,11.40
2008,02,05,00,30,16.00
2008,02,05,00,31,9.00
2008,02,05,00,32,1.60
2008,02,05,00,33,3.90
2008,02,05,00,34,10.80
2008,02,05,00,35,7.40
2008,02,05,00,36,10.50
2008,02,05,00,37,8.60
2008,02,05,00,38,7.20
2008,02,05,00,39,6.40
2008,02,05,00,40,1.90
2008,02,05,00,41,4.00
2008,02,05,00,42,5.30
2008,02,05,00,43,5.10
2008,02,05,00,44,6.50
2008,02,05,00,45,2.60
2008,02,05,00,46,4.30
2008,02,05,00,47,6.10
2008,02,05,00,48,6.40
2008,02,05,00,49,8.10
2008,02,05,00,50,11.20
2008,02,05,00,51,8.10
2008,02,05,00,52,4.50
2008,02,05,00,53,3.60
2008,02,05,00,54,5.30
2008,02,05,00,55,3.30
2008,02,05,00,56,6.50
2008,02,05,00,57,6.80
2008,02,05,00,58,6.30
2008,02,05,00,59,7.00
2008,02,05,01,00,6.80
2008,02,05,01,01,8.80
2008,02,05,01,02,10.40
2008,02,05,01,03,8.70
2008,02,05,01,04,8.60
2008,02,05,01,05,12.50
2008,02,05,01,06,11.40
2008,02,05,01,07,8.60
2008,02,05,01,08,10.80
2008,02,05,01,09,5.50
2008,02,05,01,10,6.70
2008,02,05,01,11,4.00
2008,02,05,01,12,3.80
2008,02,05,01,13,3.40
2008,02,05,01,14,1.80
2008,02,05,01,15,6.30
2008,02,05,01,16,7.70
2008,02,05,01,17,7.40
2008,02,05,01,18,7.50
2008,02,05,01,19,10.80
2008,02,05,01,20,8.40
2008,02,05,01,21,10.10
2008,02,05,01,22,9.10
2008,02,05,01,23,8.90
2008,02,05,01,24,5.50
2008,02,05,01,25,5.00
2008,02,05,01,26,3.40
2008,02,05,01,27,5.10
2008,02,05,01,28,7.40
2008,02,05,01,29,7.60
2008,02,05,01,30,13.10
2008,02,05,01,31,12.50
2008,02,05,01,32,7.20
2008,02,05,01,33,13.40
2008,02,05,01,34,9.20
2008,02,05,01,35,10.50
2008,02,05,01,36,9.90
2008,02,05,01,37,7.90
2008,02,05,01,38,5.70
2008,02,05,01,39,8.90
2008,02,05,01,40,11.10
2008,02,05,01,41,8.70
2008,02,05,01,42,12.40
2008,02,05,01,43,11.20
2008,02,05,01,44,7.40
2008,02,05,01,45,8.00
2008,02,05,01,46,6.80
2008,02,05,01,47,5.20
2008,02,05,01,48,6.40
2008,02,05,01,49,7.80
2008,02,05,01,50,9.90
2008,02,05,01,51,10.20
2008,02,05,01,52,9.30
2008,02,05,01,53,10.20
2008,02,05,01,54,5.40
2008,02,05,01,55,6.30
2008,02,05,01,56,3.80
2008,02,05,01,57,3.40
2008,02,05,01,58,2.10
2008,02,05,01,59,5.10
2008,02,05,02,00,4.70
2008,02,05,02,01,8.10
2008,02,05,02,02,3.70
2008,02,05,02,03,3.10
2008,02,05,02,04,2.20
2008,02,05,02,05,4.70
2008,02,05,02,06,5.30
2008,02,05,02,07,3.40
2008,02,05,02,08,8.80
2008,02,05,02,09,6.40
2008,02,05,02,10,5.10
2008,02,05,02,11,7.50
2008,02,05,02,12,5.30
2008,02,05,02,13,10.20
2008,02,05,02,14,11.00
2008,02,05,02,15,8.00
2008,02,05,02,16,7.60
2008,02,05,02,17,4.30
2008,02,05,02,18,7.20
2008,02,05,02,19,8.20
2008,02,05,02,20,6.90
2008,02,05,02,21,3.90
2008,02,05,02,22,9.30
2008,02,05,02,23,6.60
2008,02,05,02,24,5.70
2008,02,05,02,25,9.80
2008,02,05,02,26,8.20
2008,02,05,02,27,6.70
2008,02,05,02,28,9.10
2008,02,05,02,29,8.20
2008,02,05,02,30,7.20
2008,02,05,02,31,8.80
2008,02,05,02,32,7.60
2008,02,05,02,33,6.90
2008,02,05,02,34,8.70
2008,02,05,02,35,11.40
2008,02,05,02,36,11.50
2008,02,05,02,37,7.00
2008,02,05,02,38,6.20
2008,02,05,02,39,6.50
2008,02,05,02,40,2.50
2008,02,05,02,41,3.70
2008,02,05,02,42,5.50
2008,02,05,02,43,6.70
2008,02,05,02,44,7.40
2008,02,05,02,45,9.10
2008,02,05,02,46,4.10
2008,02,05,02,47,7.90
2008,02,05,02,48,7.60
2008,02,05,02,49,8.90
2008,02,05,02,50,12.90
2008,02,05,02,51,9.90
2008,02,05,02,52,8.70
2008,02,05,02,53,5.30
2008,02,05,02,54,8.30
2008,02,05,02,55,8.00
2008,02,05,02,56,9.80
2008,02,05,02,57,10.20
2008,02,05,02,58,9.00
2008,02,05,02,59,8.40
2008,02,05,03,00,5.00
2008,02,05,03,01,6.20
2008,02,05,03,02,7.70
2008,02,05,03,03,5.50
2008,02,05,03,04,5.00
2008,02,05,03,05,12.10
2008,02,05,03,06,9.80
2008,02,05,03,07,7.40
2008,02,05,03,08,9.00
2008,02,05,03,09,8.60
2008,02,05,03,10,10.90
2008,02,05,03,11,11.70
2008,02,05,03,12,8.10
2008,02,05,03,13,6.00
2008,02,05,03,14,13.30
2008,02,05,03,15,7.90
2008,02,05,03,16,7.70
2008,02,05,03,17,7.10
2008,02,05,03,18,7.70
2008,02,05,03,19,8.20
2008,02,05,03,20,7.50
2008,02,05,03,21,6.80
2008,02,05,03,22,4.50
2008,02,05,03,23,8.50
2008,02,05,03,24,11.10
2008,02,05,03,25,7.30
2008,02,05,03,26,9.50
2008,02,05,03,27,7.30
2008,02,05,03,28,5.20
2008,02,05,03,29,8.50
2008,02,05,03,30,9.10
2008,02,05,03,31,7.60
2008,02,05,03,32,7.40
2008,02,05,03,33,14.30
2008,02,05,03,34,11.40
2008,02,05,03,35,7.40
2008,02,05,03,36,12.20
2008,02,05,03,37,11.40
2008,02,05,03,38,11.70
2008,02,05,03,39,8.00
2008,02,05,03,40,10.50
2008,02,05,03,41,8.40
2008,02,05,03,42,6.30
2008,02,05,03,43,2.70
2008,02,05,03,44,5.00
2008,02,05,03,45,4.40
2008,02,05,03,46,6.80
2008,02,05,03,47,8.20
2008,02,05,03,48,9.40
2008,02,05,03,49,11.60
2008,02,05,03,50,9.90
2008,02,05,03,51,10.40
2008,02,05,03,52,14.70
2008,02,05,03,53,12.20
2008,02,05,03,54,8.10
2008,02,05,03,55,8.00
2008,02,05,03,56,5.10
2008,02,05,03,57,8.10
2008,02,05,03,58,5.90
2008,02,05,03,59,7.90
2008,02,05,04,00,6.90
2008,02,05,04,01,12.00
2008,02,05,04,02,7.00
2008,02,05,04,03,9.80
2008,02,05,04,04,6.00
2008,02,05,04,05,7.90
2008,02,05,04,06,9.60
2008,02,05,04,07,5.50
2008,02,05,04,08,11.60
2008,02,05,04,09,9.80
2008,02,05,04,10,6.00
2008,02,05,04,11,8.10
2008,02,05,04,12,9.60
2008,02,05,04,13,8.90
2008,02,05,04,14,6.50
2008,02,05,04,15,8.30
2008,02,05,04,16,6.80
2008,02,05,04,17,8.80
2008,02,05,04,18,12.10
2008,02,05,04,19,10.10
2008,02,05,04,20,8.10
2008,02,05,04,21,4.40
2008,02,05,04,22,5.00
2008,02,05,04,23,9.70
2008,02,05,04,24,4.10
2008,02,05,04,25,8.90
2008,02,05,04,26,8.60
2008,02,05,04,27,6.60
2008,02,05,04,28,7.20
2008,02,05,04,29,10.20
2008,02,05,04,30,7.10
2008,02,05,04,31,3.70
2008,02,05,04,32,3.00
2008,02,05,04,33,2.50
2008,02,05,04,34,5.40
2008,02,05,04,35,3.90
2008,02,05,04,36,4.10
2008,02,05,04,37,6.40
2008,02,05,04,38,4.80
2008,02,05,04,39,8.20
2008,02,05,04,40,8.70
2008,02,05,04,41,6.90
2008,02,05,04,42,7.30
2008,02,05,04,43,4.50
2008,02,05,04,44,1.30
2008,02,05,04,45,6.10
2008,02,05,04,46,6.40
2008,02,05,04,47,5.80
2008,02,05,04,48,7.20
2008,02,05,04,49,4.30
2008,02,05,04,50,5.20
2008,02,05,04,51,5.80
2008,02,05,04,52,3.70
2008,02,05,04,53,9.70
2008,02,05,04,54,6.60
2008,02,05,04,55,7.70
2008,02,05,04,56,3.00
2008,02,05,04,57,7.20
2008,02,05,04,58,6.80
2008,02,05,04,59,7.90
2008,02,05,05,00,5.70
2008,02,05,05,01,11.80
2008,02,05,05,02,8.50
2008,02,05,05,03,7.50
2008,02,05,05,04,9.80
2008,02,05,05,05,11.20
2008,02,05,05,06,6.20
2008,02,05,05,07,5.40
2008,02,05,05,08,5.00
2008,02,05,05,09,8.60
2008,02,05,05,10,10.60
2008,02,05,05,11,8.00
2008,02,05,05,12,6.80
2008,02,05,05,13,12.20
2008,02,05,05,14,9.10
2008,02,05,05,15,4.20
2008,02,05,05,16,2.50
2008,02,05,05,17,7.00
2008,02,05,05,18,7.00
2008,02,05,05,19,6.10
2008,02,05,05,20,8.60
2008,02,05,05,21,9.80
2008,02,05,05,22,6.80
2008,02,05,05,23,7.30
2008,02,05,05,24,9.60
2008,02,05,05,25,6.70
2008,02,05,05,26,2.90
2008,02,05,05,27,1.80
2008,02,05,05,28,9.50
2008,02,05,05,29,7.30
2008,02,05,05,30,9.70
2008,02,05,05,31,8.90
2008,02,05,05,32,7.50
2008,02,05,05,33,13.60
2008,02,05,05,34,11.00
2008,02,05,05,35,5.90
2008,02,05,05,36,8.00
2008,02,05,05,37,7.90
2008,02,05,05,38,10.30
2008,02,05,05,39,8.90
2008,02,05,05,40,5.50
2008,02,05,05,41,7.20
2008,02,05,05,42,6.90
2008,02,05,05,43,13.00
2008,02,05,05,44,11.40
2008,02,05,05,45,12.80
2008,02,05,05,46,5.90
2008,02,05,05,47,5.00
2008,02,05,05,48,7.90
2008,02,05,05,49,6.70
2008,02,05,05,50,4.70
2008,02,05,05,51,10.80
2008,02,05,05,52,8.30
2008,02,05,05,53,6.80
2008,02,05,05,54,4.40
2008,02,05,05,55,7.00
2008,02,05,05,56,6.40
2008,02,05,05,57,3.00
2008,02,05,05,58,1.40
2008,02,05,05,59,2.30
2008,02,05,06,00,6.40
2008,02,05,06,01,5.40
2008,02,05,06,02,4.20
2008,02,05,06,03,2.60
2008,02,05,06,04,0.30
2008,02,05,06,05,3.80
2008,02,05,06,06,5.10
2008,02,05,06,07,5.40
2008,02,05,06,08,8.20
2008,02,05,06,09,9.80
2008,02,05,06,10,4.40
2008,02,05,06,11,4.30
2008,02,05,06,12,3.00
2008,02,05,06,13,3.20
2008,02,05,06,14,5.20
2008,02,05,06,15,4.70
2008,02,05,06,16,7.50
2008,02,05,06,17,5.90
2008,02,05,06,18,6.70
2008,02,05,06,19,10.90
2008,02,05,06,20,8.90
2008,02,05,06,21,4.70
2008,02,05,06,22,3.50
2008,02,05,06,23,3.00
2008,02,05,06,24,1.10
2008,02,05,06,25,3.30
2008,02,05,06,26,3.30
2008,02,05,06,27,4.10
2008,02,05,06,28,4.90
2008,02,05,06,29,2.20
2008,02,05,06,30,0.90
2008,02,05,06,31,6.00
2008,02,05,06,32,3.70
2008,02,05,06,33,2.80
2008,02,05,06,34,2.70
2008,02,05,06,35,3.40
2008,02,05,06,36,1.60
2008,02,05,06,37,3.20
2008,02,05,06,38,5.00
2008,02,05,06,39,4.50
2008,02,05,06,40,3.00
2008,02,05,06,41,4.00
2008,02,05,06,42,0.90
2008,02,05,06,43,5.40
2008,02,05,06,44,3.40
2008,02,05,06,45,1.40
2008,02,05,06,46,0.70
2008,02,05,06,47,1.70
2008,02,05,06,48,0.30
2008,02,05,06,49,3.90
2008,02,05,06,50,2.80
2008,02,05,06,51,2.90
2008,02,05,06,52,4.10
2008,02,05,06,53,6.00
2008,02,05,06,54,2.60
2008,02,05,06,55,3.10
2008,02,05,06,56,4.10
2008,02,05,06,57,5.60
2008,02,05,06,58,9.30
2008,02,05,06,59,7.40
2008,02,05,07,00,3.50
2008,02,05,07,01,3.20
2008,02,05,07,02,4.40
2008,02,05,07,03,5.10
2008,02,05,07,04,5.60
2008,02,05,07,05,5.30
2008,02,05,07,06,4.70
2008,02,05,07,07,4.30
2008,02,05,07,08,4.00
2008,02,05,07,09,4.40
2008,02,05,07,10,2.70
2008,02,05,07,11,4.70
2008,02,05,07,12,5.80
2008,02,05,07,13,3.50
2008,02,05,07,14,4.00
2008,02,05,07,15,2.90
2008,02,05,07,16,3.20
2008,02,05,07,17,6.90
2008,02,05,07,18,8.60
2008,02,05,07,19,5.70
2008,02,05,07,20,5.50
2008,02,05,07,21,8.20
2008,02,05,07,22,5.10
2008,02,05,07,23,5.20
2008,02,05,07,24,2.80
2008,02,05,07,25,3.60
2008,02,05,07,26,6.30
2008,02,05,07,27,7.80
2008,02,05,07,28,5.70
2008,02,05,07,29,4.00
2008,02,05,07,30,5.60
2008,02,05,07,31,6.80
2008,02,05,07,32,4.60
2008,02,05,07,33,5.10
2008,02,05,07,34,4.40
2008,02,05,07,35,9.70
2008,02,05,07,36,8.50
2008,02,05,07,37,6.30
2008,02,05,07,38,7.30
2008,02,05,07,39,8.60
2008,02,05,07,40,10.70
2008,02,05,07,41,6.50
2008,02,05,07,42,6.20
2008,02,05,07,43,5.80
2008,02,05,07,44,8.90
2008,02,05,07,45,11.70
2008,02,05,07,46,6.90
2008,02,05,07,47,4.20
2008,02,05,07,48,4.60
2008,02,05,07,49,6.10
2008,02,05,07,50,4.70
2008,02,05,07,51,7.00
2008,02,05,07,52,6.50
2008,02,05,07,53,3.30
2008,02,05,07,54,1.60
2008,02,05,07,55,5.70
2008,02,05,07,56,6.90
2008,02,05,07,57,4.70
2008,02,05,07,58,6.30
2008,02,05,07,59,6.90
2008,02,05,08,00,6.30
2008,02,05,08,01,6.40
2008,02,05,08,02,5.00
2008,02,05,08,03,3.50
2008,02,05,08,04,4.00
2008,02,05,08,05,2.70
2008,02,05,08,06,3.70
2008,02,05,08,07,4.70
2008,02,05,08,08,3.20
2008,02,05,08,09,3.60
2008,02,05,08,10,1.00
2008,02,05,08,11,0.10
2008,02,05,08,12,0.10
2008,02,05,08,13,0.00
2008,02,05,08,14,0.60
2008,02,05,08,15,4.40
2008,02,05,08,16,5.10
2008,02,05,08,17,5.20
2008,02,05,08,18,3.70
2008,02,05,08,19,3.30
2008,02,05,08,20,5.70
2008,02,05,08,21,4.40
2008,02,05,08,22,5.10
2008,02,05,08,23,5.90
2008,02,05,08,24,4.40
2008,02,05,08,25,3.40
2008,02,05,08,26,3.30
2008,02,05,08,27,6.00
2008,02,05,08,28,6.20
2008,02,05,08,29,7.30
2008,02,05,08,30,7.30
2008,02,05,08,31,5.70
2008,02,05,08,32,8.50
2008,02,05,08,33,5.00
2008,02,05,08,34,0.90
2008,02,05,08,35,1.50
2008,02,05,08,36,1.50
2008,02,05,08,37,0.10
2008,02,05,08,38,1.70
2008,02,05,08,39,1.50
2008,02,05,08,40,2.10
2008,02,05,08,41,0.00
2008,02,05,08,42,0.00
2008,02,05,08,43,0.40
2008,02,05,08,44,0.20
2008,02,05,08,45,0.00
2008,02,05,08,46,3.70
2008,02,05,08,47,2.20
2008,02,05,08,48,3.80
2008,02,05,08,49,3.20
2008,02,05,08,50,2.00
2008,02,05,08,51,3.10
2008,02,05,08,52,2.60
2008,02,05,08,53,2.70
2008,02,05,08,54,1.30
2008,02,05,08,55,0.00
2008,02,05,08,56,0.60
2008,02,05,08,57,1.00
2008,02,05,08,58,1.60
2008,02,05,08,59,1.60
2008,02,05,09,00,1.70
2008,02,05,09,01,0.40
2008,02,05,09,02,0.00
2008,02,05,09,03,0.00
2008,02,05,09,04,1.90
2008,02,05,09,05,3.70
2008,02,05,09,06,4.20
2008,02,05,09,07,3.80
2008,02,05,09,08,1.60
2008,02,05,09,09,2.00
2008,02,05,09,10,2.60
2008,02,05,09,11,2.50
2008,02,05,09,12,2.90
2008,02,05,09,13,3.20
2008,02,05,09,14,5.40
2008,02,05,09,15,5.80
2008,02,05,09,16,5.40
2008,02,05,09,17,6.40
2008,02,05,09,18,4.50
2008,02,05,09,19,4.00
2008,02,05,09,20,3.40
2008,02,05,09,21,3.10
2008,02,05,09,22,3.90
2008,02,05,09,23,2.60
2008,02,05,09,24,0.90
2008,02,05,09,25,0.00
2008,02,05,09,26,1.50
2008,02,05,09,27,0.00
2008,02,05,09,28,0.00
2008,02,05,09,29,1.50
2008,02,05,09,30,0.90
2008,02,05,09,31,0.20
2008,02,05,09,32,0.10
2008,02,05,09,33,2.20
2008,02,05,09,34,4.50
2008,02,05,09,35,2.60
2008,02,05,09,36,2.70
2008,02,05,09,37,3.00
2008,02,05,09,38,5.10
2008,02,05,09,39,3.70
2008,02,05,09,40,4.90
2008,02,05,09,41,0.90
2008,02,05,09,42,0.30
2008,02,05,09,43,0.00
2008,02,05,09,44,1.70
2008,02,05,09,45,5.00
2008,02,05,09,46,4.40
2008,02,05,09,47,4.50
2008,02,05,09,48,3.20
2008,02,05,09,49,1.00
2008,02,05,09,50,3.10
2008,02,05,09,51,3.00
2008,02,05,09,52,3.00
2008,02,05,09,53,3.30
2008,02,05,09,54,5.50
2008,02,05,09,55,4.80
2008,02,05,09,56,2.20
2008,02,05,09,57,3.40
2008,02,05,09,58,3.30
2008,02,05,09,59,4.00
2008,02,05,10,00,3.20
2008,02,05,10,01,4.30
2008,02,05,10,02,4.70
2008,02,05,10,03,5.10
2008,02,05,10,04,4.00
2008,02,05,10,05,4.20
2008,02,05,10,06,4.50
2008,02,05,10,07,8.00
2008,02,05,10,08,6.40
2008,02,05,10,09,8.60
2008,02,05,10,10,10.00
2008,02,05,10,11,16.00
2008,02,05,10,12,15.90
2008,02,05,10,13,10.30
2008,02,05,10,14,12.00
2008,02,05,10,15,12.90
2008,02,05,10,16,7.90
2008,02,05,10,17,10.20
2008,02,05,10,18,10.00
2008,02,05,10,19,10.50
2008,02,05,10,20,11.60
2008,02,05,10,21,12.90
2008,02,05,10,22,15.50
2008,02,05,10,23,15.20
2008,02,05,10,24,10.10
2008,02,05,10,25,11.60
2008,02,05,10,26,13.80
2008,02,05,10,27,21.50
2008,02,05,10,28,19.90
2008,02,05,10,29,14.70
2008,02,05,10,30,10.60
2008,02,05,10,31,9.80
2008,02,05,10,32,7.90
2008,02,05,10,33,10.50
2008,02,05,10,34,7.50
2008,02,05,10,35,10.60
2008,02,05,10,36,10.30
2008,02,05,10,37,11.80
2008,02,05,10,38,11.30
2008,02,05,10,39,6.40
2008,02,05,10,40,7.10
2008,02,05,10,41,6.00
2008,02,05,10,42,8.50
2008,02,05,10,43,7.70
2008,02,05,10,44,7.90
2008,02,05,10,45,8.80
2008,02,05,10,46,10.80
2008,02,05,10,47,10.80
2008,02,05,10,48,11.90
2008,02,05,10,49,12.40
2008,02,05,10,50,9.70
2008,02,05,10,51,11.10
2008,02,05,10,52,13.60
2008,02,05,10,53,16.90
2008,02,05,10,54,19.10
2008,02,05,10,55,32.90
2008,02,05,10,56,32.00
2008,02,05,10,57,31.90
2008,02,05,10,58,28.40
2008,02,05,10,59,24.40
2008,02,05,11,00,26.50
2008,02,05,11,01,16.30
2008,02,05,11,02,17.00
2008,02,05,11,03,23.50
2008,02,05,11,04,24.70
2008,02,05,11,05,25.90
2008,02,05,11,06,21.90
2008,02,05,11,07,22.70
2008,02,05,11,08,22.40
2008,02,05,11,09,16.50
2008,02,05,11,10,24.20
2008,02,05,11,11,27.00
2008,02,05,11,12,24.10
2008,02,05,11,13,32.20
2008,02,05,11,14,19.10
2008,02,05,11,15,19.40
2008,02,05,11,16,18.80
2008,02,05,11,17,20.10
2008,02,05,11,18,20.00
2008,02,05,11,19,19.00
2008,02,05,11,20,18.50
2008,02,05,11,21,17.00
2008,02,05,11,22,18.30
2008,02,05,11,23,15.30
2008,02,05,11,24,20.00
2008,02,05,11,25,16.50
2008,02,05,11,26,16.90
2008,02,05,11,27,17.60
2008,02,05,11,28,19.30
2008,02,05,11,29,28.20
2008,02,05,11,30,24.60
2008,02,05,11,31,33.30
2008,02,05,11,32,25.40
2008,02,05,11,33,30.50
2008,02,05,11,34,27.80
2008,02,05,11,35,24.20
2008,02,05,11,36,19.70
2008,02,05,11,37,19.80
2008,02,05,11,38,23.90
2008,02,05,11,39,28.30
2008,02,05,11,40,20.70
2008,02,05,11,41,23.90
2008,02,05,11,42,28.70
2008,02,05,11,43,26.10
2008,02,05,11,44,27.20
2008,02,05,11,45,28.00
2008,02,05,11,46,28.50
2008,02,05,11,47,25.50
2008,02,05,11,48,22.30
2008,02,05,11,49,26.20
2008,02,05,11,50,29.40
2008,02,05,11,51,34.50
2008,02,05,11,52,28.00
2008,02,05,11,53,23.30
2008,02,05,11,54,27.70
2008,02,05,11,55,32.50
2008,02,05,11,56,30.20
2008,02,05,11,57,24.50
2008,02,05,11,58,22.50
2008,02,05,11,59,27.40
2008,02,05,12,00,24.50
2008,02,05,12,01,28.50
2008,02,05,12,02,35.30
2008,02,05,12,03,32.80
2008,02,05,12,04,30.20
2008,02,05,12,05,36.10
2008,02,05,12,06,35.10
2008,02,05,12,07,31.20
2008,02,05,12,08,27.00
2008,02,05,12,09,34.00
2008,02,05,12,10,27.10
2008,02,05,12,11,34.10
2008,02,05,12,12,31.00
2008,02,05,12,13,36.20
2008,02,05,12,14,27.00
2008,02,05,12,15,24.00
2008,02,05,12,16,26.10
2008,02,05,12,17,28.30
2008,02,05,12,18,27.60
2008,02,05,12,19,24.30
2008,02,05,12,20,24.00
2008,02,05,12,21,21.90
2008,02,05,12,22,25.20
2008,02,05,12,23,20.60
2008,02,05,12,24,35.20
2008,02,05,12,25,26.30
2008,02,05,12,26,31.90
2008,02,05,12,27,31.80
2008,02,05,12,28,29.00
2008,02,05,12,29,30.20
2008,02,05,12,30,23.70
2008,02,05,12,31,30.50
2008,02,05,12,32,45.80
2008,02,05,12,33,27.70
2008,02,05,12,34,27.60
2008,02,05,12,35,33.20
2008,02,05,12,36,26.90
2008,02,05,12,37,28.90
2008,02,05,12,38,32.70
2008,02,05,12,39,36.30
2008,02,05,12,40,32.90
2008,02,05,12,41,37.80
2008,02,05,12,42,32.50
2008,02,05,12,43,28.90
2008,02,05,12,44,42.50
2008,02,05,12,45,26.60
2008,02,05,12,46,28.60
2008,02,05,12,47,39.40
2008,02,05,12,48,36.20
2008,02,05,12,49,42.70
2008,02,05,12,50,38.50
2008,02,05,12,51,48.70
2008,02,05,12,52,45.00
2008,02,05,12,53,40.30
2008,02,05,12,54,39.40
2008,02,05,12,55,38.50
2008,02,05,12,56,23.10
2008,02,05,12,57,27.60
2008,02,05,12,58,31.10
2008,02,05,12,59,37.90
2008,02,05,13,00,28.20
2008,02,05,13,01,26.40
2008,02,05,13,02,32.10
2008,02,05,13,03,34.80
2008,02,05,13,04,31.40
2008,02,05,13,05,30.10
2008,02,05,13,06,30.10
2008,02,05,13,07,33.20
2008,02,05,13,08,38.70
2008,02,05,13,09,37.90
2008,02,05,13,10,34.30
2008,02,05,13,11,23.90
2008,02,05,13,12,27.20
2008,02,05,13,13,18.20
2008,02,05,13,14,25.70
2008,02,05,13,15,39.20
2008,02,05,13,16,27.30
2008,02,05,13,17,31.80
2008,02,05,13,18,48.00
2008,02,05,13,19,34.40
2008,02,05,13,20,35.00
2008,02,05,13,21,23.90
2008,02,05,13,22,33.80
2008,02,05,13,23,27.40
2008,02,05,13,24,28.90
2008,02,05,13,25,26.50
2008,02,05,13,26,27.60
2008,02,05,13,27,36.80
2008,02,05,13,28,33.50
2008,02,05,13,29,34.60
2008,02,05,13,30,32.40
2008,02,05,13,31,35.40
2008,02,05,13,32,34.30
2008,02,05,13,33,26.90
2008,02,05,13,34,29.50
2008,02,05,13,35,36.80
2008,02,05,13,36,28.10
2008,02,05,13,37,28.60
2008,02,05,13,38,43.90
2008,02,05,13,39,36.00
2008,02,05,13,40,35.10
2008,02,05,13,41,37.90
2008,02,05,13,42,36.50
2008,02,05,13,43,38.40
2008,02,05,13,44,35.50
2008,02,05,13,45,38.00
2008,02,05,13,46,49.00
2008,02,05,13,47,38.30
2008,02,05,13,48,27.40
2008,02,05,13,49,26.30
2008,02,05,13,50,24.30
2008,02,05,13,51,31.60
2008,02,05,13,52,28.40
2008,02,05,13,53,34.70
2008,02,05,13,54,33.50
2008,02,05,13,55,31.30
2008,02,05,13,56,30.80
2008,02,05,13,57,30.80
2008,02,05,13,58,28.40
2008,02,05,13,59,33.30
2008,02,05,14,00,35.60
2008,02,05,14,01,30.80
2008,02,05,14,02,22.00
2008,02,05,14,03,30.40
2008,02,05,14,04,27.60
2008,02,05,14,05,27.60
2008,02,05,14,06,34.50
2008,02,05,14,07,41.20
2008,02,05,14,08,29.40
2008,02,05,14,09,34.80
2008,02,05,14,10,26.60
2008,02,05,14,11,40.30
2008,02,05,14,12,28.50
2008,02,05,14,13,28.40
2008,02,05,14,14,24.40
2008,02,05,14,15,24.10
2008,02,05,14,16,26.10
2008,02,05,14,17,34.30
2008,02,05,14,18,39.70
2008,02,05,14,19,32.70
2008,02,05,14,20,40.40
2008,02,05,14,21,25.50
2008,02,05,14,22,28.60
2008,02,05,14,23,26.40
2008,02,05,14,24,25.30
2008,02,05,14,25,25.30
2008,02,05,14,26,23.60
2008,02,05,14,27,25.50
2008,02,05,14,28,29.90
2008,02,05,14,29,23.20
2008,02,05,14,30,26.40
2008,02,05,14,31,31.50
2008,02,05,14,32,27.90
2008,02,05,14,33,25.20
2008,02,05,14,34,28.10
2008,02,05,14,35,27.60
2008,02,05,14,36,29.60
2008,02,05,14,37,20.50
2008,02,05,14,38,27.00
2008,02,05,14,39,28.20
2008,02,05,14,40,31.70
2008,02,05,14,41,31.00
2008,02,05,14,42,39.30
2008,02,05,14,43,43.30
2008,02,05,14,44,35.90
2008,02,05,14,45,31.60
2008,02,05,14,46,28.80
2008,02,05,14,47,35.50
2008,02,05,14,48,31.90
2008,02,05,14,49,29.60
2008,02,05,14,50,33.10
2008,02,05,14,51,29.10
2008,02,05,14,52,35.80
2008,02,05,14,53,31.70
2008,02,05,14,54,28.10
2008,02,05,14,55,34.10
2008,02,05,14,56,23.80
2008,02,05,14,57,24.40
2008,02,05,14,58,22.90
2008,02,05,14,59,29.90
2008,02,05,15,00,26.80
2008,02,05,15,01,26.70
2008,02,05,15,02,29.90
2008,02,05,15,03,25.70
2008,02,05,15,04,24.80
2008,02,05,15,05,19.70
2008,02,05,15,06,27.20
2008,02,05,15,07,31.90
2008,02,05,15,08,30.20
2008,02,05,15,09,20.70
2008,02,05,15,10,31.50
2008,02,05,15,11,39.30
2008,02,05,15,12,25.70
2008,02,05,15,13,23.80
2008,02,05,15,14,31.50
2008,02,05,15,15,33.80
2008,02,05,15,16,22.30
2008,02,05,15,17,23.60
2008,02,05,15,18,30.00
2008,02,05,15,19,28.00
2008,02,05,15,20,24.70
2008,02,05,15,21,27.50
2008,02,05,15,22,43.20
2008,02,05,15,23,32.90
2008,02,05,15,24,26.70
2008,02,05,15,25,22.30
2008,02,05,15,26,22.00
2008,02,05,15,27,40.20
2008,02,05,15,28,33.40
2008,02,05,15,29,36.20
2008,02,05,15,30,42.30
2008,02,05,15,31,30.10
2008,02,05,15,32,32.70
2008,02,05,15,33,35.90
2008,02,05,15,34,32.10
2008,02,05,15,35,30.20
2008,02,05,15,36,35.70
2008,02,05,15,37,37.60
2008,02,05,15,38,28.90
2008,02,05,15,39,27.30
2008,02,05,15,40,25.60
2008,02,05,15,41,26.10
2008,02,05,15,42,28.80
2008,02,05,15,43,31.10
2008,02,05,15,44,24.30
2008,02,05,15,45,31.60
2008,02,05,15,46,35.50
2008,02,05,15,47,35.80
2008,02,05,15,48,33.60
2008,02,05,15,49,33.80
2008,02,05,15,50,38.60
2008,02,05,15,51,40.40
2008,02,05,15,52,34.70
2008,02,05,15,53,38.00
2008,02,05,15,54,30.70
2008,02,05,15,55,21.40
2008,02,05,15,56,30.70
2008,02,05,15,57,30.90
2008,02,05,15,58,23.30
2008,02,05,15,59,31.20
2008,02,05,16,00,33.70
2008,02,05,16,01,27.40
2008,02,05,16,02,28.50
2008,02,05,16,03,30.00
2008,02,05,16,04,32.40
2008,02,05,16,05,28.50
2008,02,05,16,06,31.10
2008,02,05,16,07,25.80
2008,02,05,16,08,34.30
2008,02,05,16,09,33.30
2008,02,05,16,10,25.10
2008,02,05,16,11,24.00
2008,02,05,16,12,29.70
2008,02,05,16,13,36.20
2008,02,05,16,14,33.90
2008,02,05,16,15,25.20
2008,02,05,16,16,31.30
2008,02,05,16,17,17.00
2008,02,05,16,18,19.60
2008,02,05,16,19,20.50
2008,02,05,16,20,21.00
2008,02,05,16,21,22.20
2008,02,05,16,22,20.80
2008,02,05,16,23,21.70
2008,02,05,16,24,22.00
2008,02,05,16,25,18.50
2008,02,05,16,26,25.20
2008,02,05,16,27,28.70
2008,02,05,16,28,34.70
2008,02,05,16,29,32.40
2008,02,05,16,30,20.70
2008,02,05,16,31,15.50
2008,02,05,16,32,19.20
2008,02,05,16,33,22.30
2008,02,05,16,34,17.70
2008,02,05,16,35,22.30
2008,02,05,16,36,26.20
2008,02,05,16,37,26.20
2008,02,05,16,38,22.40
2008,02,05,16,39,18.80
2008,02,05,16,40,24.40
2008,02,05,16,41,19.40
2008,02,05,16,42,18.20
2008,02,05,16,43,22.30
2008,02,05,16,44,19.50
2008,02,05,16,45,17.70
2008,02,05,16,46,20.80
2008,02,05,16,47,17.30
2008,02,05,16,48,21.80
2008,02,05,16,49,23.40
2008,02,05,16,50,28.70
2008,02,05,16,51,22.80
2008,02,05,16,52,22.90
2008,02,05,16,53,21.30
2008,02,05,16,54,17.70
2008,02,05,16,55,29.00
2008,02,05,16,56,29.30
2008,02,05,16,57,27.20
2008,02,05,16,58,24.90
2008,02,05,16,59,26.30
2008,02,05,17,00,24.10
2008,02,05,17,01,22.30
2008,02,05,17,02,23.40
2008,02,05,17,03,23.70
2008,02,05,17,04,27.70
2008,02,05,17,05,25.30
2008,02,05,17,06,18.70
2008,02,05,17,07,27.40
2008,02,05,17,08,20.00
2008,02,05,17,09,22.40
2008,02,05,17,10,22.80
2008,02,05,17,11,19.50
2008,02,05,17,12,24.00
2008,02,05,17,13,24.00
2008,02,05,17,14,17.90
2008,02,05,17,15,23.60
2008,02,05,17,16,22.30
2008,02,05,17,17,20.70
2008,02,05,17,18,17.10
2008,02,05,17,19,20.20
2008,02,05,17,20,18.00
2008,02,05,17,21,16.20
2008,02,05,17,22,20.80
2008,02,05,17,23,18.40
2008,02,05,17,24,20.80
2008,02,05,17,25,13.40
2008,02,05,17,26,23.20
2008,02,05,17,27,16.70
2008,02,05,17,28,21.20
2008,02,05,17,29,12.60
2008,02,05,17,30,5.60
2008,02,05,17,31,22.10
2008,02,05,17,32,20.50
2008,02,05,17,33,10.10
2008,02,05,17,34,8.00
2008,02,05,17,35,9.50
2008,02,05,17,36,14.20
2008,02,05,17,37,17.10
2008,02,05,17,38,12.60
2008,02,05,17,39,7.30
2008,02,05,17,40,9.80
2008,02,05,17,41,14.30
2008,02,05,17,42,12.20
2008,02,05,17,43,6.50